Location: Holyhead Bay
(53.3667°N, 4.6667°W)
Time: 19:38:50
(UTC+00:00)

Cosmos 1328 Rocket - Pass Details

Date: 24 November 2020
Orbit: 602 x 626 km, 82.5° (Epoch: 16 January)

Event Time Altitude Azimuth Distance (km) Brightness Sun altitude
Rises 18:59:52 0° 192° (SSW) 2,845 7.1 -24.5°
Reaches altitude 10° 19:02:04 10° 194° (SSW) 1,948 6.3 -24.9°
Enters shadow 19:05:39 60° 209° (SSW) 695 3.8 -25.4°
